Home > Weather > Torrance > Past weeks

Flag for USA Past Weather in Torrance, California, USA — Yesterday and Last 2 Weeks

Now
61 °F

Overcast.


Feels Like: 61 °F
Forecast: 60 / 67 °F
Wind: 5 mph from West

Location: Hawthorne Municipal Airport

Current Time: May 29, 2016 at 2:50:42 AM

Latest Report: May 29, 2016 at 1:53 AM


Visibility: 10 mi

Pressure: 29.96 "Hg

Humidity: 75%

Dew Point: 53 °F

Location of TorranceLocation

Past Weather in Torrance — Graph

°F

Torrance Temperature Yesterday

Maximum temperature yesterday: 68 °F (at 12:53 PM)
Minimum temperature yesterday: 61 °F (at 12:53 AM)
Average temperature yesterday: 63 °F

High & Low Weather Summary for the Past Weeks

 TemperatureHumidityPressure
High71 °F (May 15, 12:53 PM)84% (May 26, 3:53 AM)30.10 "Hg (May 26, 3:53 AM)
Low56 °F (May 22, 5:53 AM)41% (May 23, 2:53 PM)29.83 "Hg (May 19, 6:53 PM)
Average63 °F69%29.95 "Hg
* Reported May 14 1:53 AM — May 29 1:53 AM, Torrance, Weather by CustomWeather, © 2016

Note: Actual official high and low records may vary slightly from our data, if they occured in-between our weather recording intervals... More about our weather records

Advertising

Torrance Weather History for the Previous 24 Hours

Scroll right to see more
 ConditionsComfort  
Time TempWeatherWind HumidityBarometerVisibility
1:53 AM
Sun, May 29
61 °FOvercast.5 mph75%29.96 "Hg10 mi
12:53 AM61 °FOvercast.3 mph75%29.97 "Hg10 mi
11:53 PM
Sat, May 28
61 °FOvercast.3 mph75%29.97 "Hg10 mi
10:53 PM61 °FOvercast.5 mph75%29.97 "Hg10 mi
9:53 PM61 °FOvercast.6 mph75%29.96 "Hg10 mi
8:53 PM61 °FOvercast.6 mph75%29.94 "Hg10 mi
7:53 PM61 °FOvercast.8 mph75%29.93 "Hg10 mi
6:53 PM62 °FOvercast.8 mph75%29.91 "Hg10 mi
5:53 PM63 °FOvercast.13 mph73%29.88 "Hg10 mi
4:53 PM65 °FOvercast.13 mph68%29.87 "Hg10 mi
3:53 PM67 °FScattered clouds.12 mph66%29.87 "Hg10 mi
2:53 PM67 °FPassing clouds.10 mph66%29.88 "Hg10 mi
2:00 PM68 °FHaze.10 mph63%29.89 "Hg2 mi
12:53 PM68 °FOvercast.6 mph63%29.89 "Hg10 mi
11:53 AM66 °FOvercast.6 mph68%29.90 "Hg10 mi
10:53 AM65 °FOvercast.5 mph70%29.90 "Hg10 mi
9:53 AM64 °FOvercast.3 mph73%29.90 "Hg10 mi
8:53 AM64 °FOvercast.No wind70%29.90 "Hg9 mi
7:53 AM62 °FOvercast.3 mph75%29.89 "Hg8 mi
6:53 AM62 °FOvercast.5 mph78%29.86 "Hg8 mi
5:53 AM62 °FOvercast.3 mph78%29.85 "Hg9 mi
4:53 AM62 °FOvercast.3 mph78%29.84 "Hg9 mi
3:53 AM62 °FOvercast.No wind78%29.83 "Hg10 mi
2:53 AM62 °FOvercast.No wind78%29.83 "Hg10 mi
Weather by CustomWeather, © 2016

See weather overviewHow to use our weather pages